Regional Weather Roundup
Issued by NWS

Home | Current Version | Previous Version | Text Only | Print | Product List | Glossary On
Versions: 1 2 3 4 5 6 7 8 9 10 11 12 13 14 15 16 17 18 19 20 21 22 23 24 25 26 27 28
000
ASUS42 KFFC 232103
RWRGA
WEATHER ROUNDUP FOR GEORGIA
NATIONAL WEATHER SERVICE PEACHTREE CITY GA
500 PM EDT THU OCT 23 2014

NOTE: "FAIR" INDICATES FEW OR NO CLOUDS BELOW 12,000 FEET WITH NO
SIGNIFICANT WEATHER AND/OR OBSTRUCTIONS TO VISIBILITY.

* = USE WITH CAUTION. THE STATIONS MARKED WITH AN ASTERISK MAY NOT
REPORT WEATHER SUCH AS PRECIPITATION, FOG, OR THUNDER AND ARE NOT
QUALITY CONTROLLED BY NWS.

THE REMARK "TC" DENOTES TEMPERATURE READING IN DEGREES CELSIUS.

GAZ001>058-232200-
NORTH GEORGIA

CITY           SKY/WX    TMP DP  RH WIND       PRES   REMARKS
ATLANTA        PTSUNNY   70  38  31 NW8       30.03S
ATHENS         SUNNY     72  38  29 CALM      30.01S
CHAMBLEE       MOSUNNY   66  41  40 NW9       30.03S
PEACHTREE CITY SUNNY     71  40  32 W5        30.04S
ROME           MOSUNNY   69  43  38 N9        30.04F
WEST ATLANTA   MOSUNNY   67  41  38 W9        30.03S
GAINESVILLE    SUNNY     67  42  40 SW10      30.03F
CARTERSVILLE   MOSUNNY   68  42  38 VRB5      30.05F


CITY           SKY/WX    TMP DP  RH WIND       PRES   REMARKS
DALTON*        PTSUNNY   64  45  48 N9        30.06S
LAWRENCEVILLE* SUNNY     68  39  34 W7        30.02F
MARIETTA       PTSUNNY   67  42  39 NW7       30.04F
KENNESAW*      MOSUNNY   66  39  37 NW8       30.06F
$$

GAZ059>098-102>109-232200-
CENTRAL GEORGIA

CITY           SKY/WX    TMP DP  RH WIND       PRES   REMARKS
AUGUSTA-BUSH   SUNNY     72  36  26 N8        29.99F
AUGUSTA-DANIEL SUNNY     72  38  29 N8        30.01S
COLUMBUS       SUNNY     72  39  30 N8        30.02F
MACON          SUNNY     72  43  35 CALM      30.02S
ROBINS AFB     SUNNY     71  42  35 NE6       30.01F


CITY           SKY/WX    TMP DP  RH WIND       PRES   REMARKS
LAGRANGE*      SUNNY     72  48  41 N3        30.04S
SYLVANIA*      SUNNY     76  49  38 NW3       30.01S
MILLEDGEVILLE* SUNNY     70  46  43 CALM      30.01F
$$

GAZ099>101-110>166-232200-
SOUTH GEORGIA

CITY           SKY/WX    TMP DP  RH WIND       PRES   REMARKS
SAVANNAH       SUNNY     72  44  36 NW8       30.00S
VALDOSTA       SUNNY     74  36  25 NE5       29.99F
ALMA           SUNNY     73  41  31 VRB3      30.00S
ST SIMONS      SUNNY     69  49  48 E7        29.99F
ALBANY         SUNNY     73  44  35 W3        30.03F
HUNTER AFB     SUNNY     71  47  41 NW7       29.98S
MOODY AFB      SUNNY     73  40  29 NE8       30.00F
BRUNSWICK      SUNNY     72  41  33 N6        30.00S


CITY           SKY/WX    TMP DP  RH WIND       PRES   REMARKS
BAINBRIDGE*    SUNNY     79  45  29 NE8       30.00F
MOULTRIE*      SUNNY     72  43  35 NE8       30.01F
VIDALIA*       SUNNY     72  45  37 NW5       30.01S
WAYCROSS*      SUNNY     75  48  38 N7        30.00S
DOUGLAS*       SUNNY     73  39  29 CALM      30.02S
$$



USA.gov is the U.S. government's official web portal to all federal, state and local government web resources and services.